San Roberto F.

Prima Categoria, le designazioni arbitrali del sabato

Ecco le designazioni arbitrali relative alle gare di Prima Categoria del sabato: PRIMA CATEGORIA GIR. C Caulonia-Vigor: Alessandro Russo di Cosenza PRIMA CATEGORIA GIR. D Palizzi-San Roberto Fiumara: Andrea Chiefalo di Catanzaro San Gaetano Catanoso-Scillese: Paola Mandile di Catanzaro Bianco-Pro Pellaro: Aldo D'Auria di Vibo Valentia

San Roberto Fiumara, grosse novità in panchina

Novità in casa San Roberto Fiumara. Sebastiano Fortugno infatti si è dimesso dalla guida tecnica della squadra. "Questo è un momento delicatissimo per le sorti del San Roberto Fiumara. Molte cose non vanno per...

Prima Categoria, le designazioni arbitrali del sabato

o le designazioni arbitrali relative alle gare di Prima Categoria in programma sabato: GIRONE C Caulonia-San Calogero: Marco Calabrò di Reggio Calabria Parghelia-Bivongi Pazzano: Giuseppe Spinosa di Crotone GIRONE D Borgo Grecanico-Bianco: Giovanni Luca Idone di Reggio Calabria Palizzi-Rosarno: Antonino Costantino di Reggio Calabria San Roberto Fiumara-Pro Pellaro: William...
video

Saint Michel-S. Roberto 2-0, le interviste post gara [VIDEO]

Vittoria casalinga per la Saint Michel, che batte il San Roberto Fiumara e sale a quota 14 punti (leggi quì). Ecco le interviste rilasciate alle nostre telecamere a fine gara https://youtu.be/YydDXkLCaHU https://youtu.be/tltZioCtMQ4 https://youtu.be/1zCb585JPiU https://youtu.be/EGUsbwxN4SU

Saint Michel-S. Roberto 2-0, la galleria fotografica a cura di Giovanni Nasso

Un goal per tempo e 3 punti interni per la Saint Michel, che batte un buon San Roberto Fiumara per 2-0 (leggi quì). Ecco la galleria fotografica a cura di Giovanni Nasso
DataCasaRisultatiTrasfertaOra
2020-04-26 15:30:0026/04/20- 15:30:0015:30
2020-04-19 15:30:0019/04/20- 15:30:0015:30
2020-03-29 15:30:0029/03/20- 15:30:0015:30
2020-03-22 14:30:0022/03/20- 14:30:0014:30
2020-03-15 14:30:0015/03/20- 14:30:0014:30
2020-03-08 14:30:0008/03/20- 14:30:0014:30
2020-03-01 14:30:0001/03/20- 14:30:0014:30
2020-02-23 14:30:0023/02/20- 14:30:0014:30
2020-02-09 14:30:0009/02/20- 14:30:0014:30
2020-02-02 14:30:0002/02/20- 14:30:0014:30
2020-01-25 14:30:0025/01/207 - 0 14:30:0014:30
2020-01-18 14:30:0018/01/204 - 1 14:30:0014:30
2020-01-12 14:30:0012/01/202 - 0 14:30:0014:30
2019-12-21 14:30:0021/12/191 - 2 14:30:0014:30
2019-12-14 14:30:0014/12/191 - 1 14:30:0014:30
2019-12-08 14:30:0008/12/194 - 1 14:30:0014:30
2019-11-30 14:30:0030/11/191 - 1 14:30:0014:30
2019-11-17 14:30:0017/11/192 - 0 14:30:0014:30
2019-11-09 14:30:0009/11/193 - 0 14:30:0014:30
2019-11-02 14:30:0002/11/192 - 0 14:30:0014:30
2019-10-26 15:30:0026/10/194 - 4 15:30:0015:30
2019-10-20 15:30:0020/10/193 - 2 15:30:0015:30
2019-10-12 15:30:0012/10/193 - 3 15:30:0015:30
2019-10-05 15:30:0005/10/190 - 1 15:30:0015:30
2019-09-29 15:30:0029/09/190 - 6 15:30:0015:30
2019-09-21 15:30:0021/09/190 - 0 15:30:0015:30
2019-05-05 16:00:0005/05/194 - 0 16:00:0016:00
2019-04-28 16:00:0028/04/191 - 2 16:00:0016:00
2019-04-07 16:00:0007/04/191 - 3 16:00:0016:00
2019-03-31 16:00:0031/03/192 - 3 16:00:0016:00
2019-03-24 15:00:0024/03/191 - 3 15:00:0015:00
2019-03-17 15:00:0017/03/193 - 1 15:00:0015:00
2019-03-10 15:00:0010/03/191 - 0 15:00:0015:00
2019-03-03 15:00:0003/03/192 - 2 15:00:0015:00
2019-02-24 14:30:0024/02/191 - 0 14:30:0014:30
2019-02-17 14:30:0017/02/190 - 0 14:30:0014:30
2019-02-10 14:30:0010/02/190 - 1 14:30:0014:30
2019-02-03 14:30:0003/02/191 - 0 14:30:0014:30
2019-01-27 14:30:0027/01/191 - 3 14:30:0014:30
2019-01-20 14:30:0020/01/191 - 1 14:30:0014:30
2019-01-13 14:30:0013/01/193 - 1 14:30:0014:30
2018-12-22 14:30:0022/12/180 - 1 14:30:0014:30
2018-12-16 14:30:0016/12/185 - 2 14:30:0014:30
2018-12-09 14:30:0009/12/183 - 1 14:30:0014:30
2018-12-02 14:30:0002/12/180 - 1 14:30:0014:30
2018-11-25 14:30:0025/11/184 - 1 14:30:0014:30
2018-11-18 14:30:0018/11/181 - 4 14:30:0014:30
2018-11-11 14:30:0011/11/184 - 3 14:30:0014:30
2018-11-04 14:30:0004/11/183 - 1 14:30:0014:30
2018-10-28 14:30:0028/10/180 - 0 14:30:0014:30
2018-10-21 15:30:0021/10/181 - 3 15:30:0015:30
2018-10-14 15:30:0014/10/182 - 0 15:30:0015:30
2018-10-07 15:30:0007/10/184 - 2 15:30:0015:30
2018-09-30 15:30:0030/09/183 - 1 15:30:0015:30
2018-09-23 15:30:0023/09/181 - 1 15:30:0015:30
2018-09-16 15:30:0016/09/183 - 0 15:30:0015:30
2018-04-29 16:00:0029/04/181 - 0 16:00:0016:00
2018-04-22 16:00:0022/04/185 - 4 16:00:0016:00
2018-04-14 16:00:0014/04/182 - 2 16:00:0016:00
2018-04-08 16:00:0008/04/183 - 1 16:00:0016:00
2018-03-24 15:00:0024/03/182 - 2 15:00:0015:00
2018-03-17 15:00:0017/03/182 - 1 15:00:0015:00
2018-03-11 15:00:0011/03/183 - 0 15:00:0015:00
2018-03-03 15:00:0003/03/180 - 0 15:00:0015:00
2018-02-25 14:30:0025/02/182 - 2 14:30:0014:30
2018-02-17 14:30:0017/02/182 - 1 14:30:0014:30
2018-02-10 14:30:0010/02/182 - 0 14:30:0014:30
2018-02-03 14:30:0003/02/182 - 0 14:30:0014:30
2018-01-28 14:30:0028/01/181 - 1 14:30:0014:30
2018-01-21 14:30:0021/01/181 - 1 14:30:0014:30
2018-01-13 14:30:0013/01/185 - 1 14:30:0014:30
2018-01-06 14:30:0006/01/181 - 1 14:30:0014:30
2017-12-16 14:30:0016/12/173 - 0 14:30:0014:30
2017-12-10 14:30:0010/12/171 - 0 14:30:0014:30
2017-12-02 14:30:0002/12/172 - 1 14:30:0014:30
2017-11-25 14:30:0025/11/173 - 0 14:30:0014:30
2017-11-18 14:30:0018/11/173 - 3 14:30:0014:30
2017-11-11 14:30:0011/11/175 - 1 14:30:0014:30
2017-11-04 14:30:0004/11/171 - 0 14:30:0014:30
2017-10-28 15:30:0028/10/172 - 2 15:30:0015:30
2017-10-21 15:30:0021/10/171 - 1 15:30:0015:30
2017-10-14 15:30:0014/10/171 - 4 15:30:0015:30